Other Public Products
Issued by NWS Charleston, SC

Current Version | Previous Version | Graphics & Text | Print | Product List | Glossary On
Versions: 1 2 3 4 5 6 7 8 9 10 11 12 13 14 15 16 17 18 19 20 21 22 23 24 25 26 27 28 29 30 31 32 33 34 35 36 37 38 39 40 41 42 43 44 45 46 47 48 49 50
000
FPUS82 KCHS 252012
OPUCHS

TEST...KCHS/KSAV Gateway Observations...TEST
National Weather Service Charleston SC
400 PM EDT THU MAY 25 2017

NOTE: "fair" indicates few or no clouds below 12,000 feet with no
significant weather and/or obstructions to visibility.

SCZ050-WAZ558-NCZ071-TXZ119-213-PAZ071-DCZ001-FLZ074-172-MI076-
NYZ176-178-MAZ016-IL014-TNZ027-NJZ106-GAZ044-MD014-252100-

...Gateway Observations for Charleston International...

CITY           SKY/WX    TMP DP  RH WIND       PRES   REMARKS
Chas Airport   MOSUNNY   77  51  40 W18G29    29.72F
Seattle        NOT AVBL
Charlotte      PTSUNNY   72  52  49 W12G22    29.64R
Dallas DFW     MOSUNNY   92  56  29 S28G33    29.61F HX  90
Dallas Love    MOSUNNY   92  56  29 S24G32    29.64F HX  90
Philladelphia  CLOUDY    66  62  87 NE8       29.49F
Wash National  MOSUNNY   75  61  61 S8        29.44F THUNDER
Baltimore      PTSUNNY   71  60  68 CALM      29.45F
Miami          CLOUDY    89  73  59 SW17G25   29.88F HX  97
Detroit        LGT RAIN  61  59  93 NW9       29.49S FOG
Newark         DRIZZLE   58  58 100 NE9       29.56S FOG
Laguardia      CLOUDY    58  56  93 NE17      29.56F FOG
J F K          CLOUDY    59  59 100 E16G23    29.56F FOG
Boston Logan   LGT RAIN  52  52 100 NE18      29.73  FOG
Ft. Lauderdale CLOUDY    82  78  88 W5        29.88F HX  91
Chicago O`Hare CLOUDY    67  54  63 N8        29.64R
Chicago Midway PTSUNNY   68  54  60 N9        29.64R
Houston Bush   MOSUNNY   90  60  36 S13G22    29.78F
Houston Hobby  SUNNY     86  63  45 S15G23    29.80F
Nashville      PTSUNNY   74  52  46 W13G23    29.76R
Atlanta        MOSUNNY   72  50  45 W14G24    29.80F

$$

GAZ044-118-TXZ119-213-NCZ071-DCZ001-MDZ014-506-PAZ021-071-NJZ106-
NYZ176-178-MAZ106-OHZ011-021-055-MIZ076-KYZ091-ILZ014-INZ047-
MNZ060-ONZ431-252100-

...Gateway Observations for Savannah International...

CITY           SKY/WX    TMP DP  RH WIND       PRES   REMARKS
Savannah Arpt  MOSUNNY   81  50  33 W20       29.78S
Atlanta        MOSUNNY   72  50  45 W14G24    29.80F
Charlotte      PTSUNNY   72  52  49 W12G22    29.64R
Dallas DFW     MOSUNNY   92  56  29 S28G33    29.61F HX  90
Houston Bush   MOSUNNY   90  60  36 S13G22    29.78F
Wash National  MOSUNNY   75  61  61 S8        29.44F THUNDER
Wash Dulles    CLOUDY    71  57  61 VRB7      29.45F
Baltimore      PTSUNNY   71  60  68 CALM      29.45F
Philadelphia   CLOUDY    66  62  87 NE8       29.49F
Newark         DRIZZLE   58  58 100 NE9       29.56S FOG
Laguardia      CLOUDY    58  56  93 NE17      29.56F FOG
J F K          CLOUDY    59  59 100 E16G23    29.56F FOG
Boston         LGT RAIN  52  52 100 NE18      29.73  FOG
Pittsburg      LGT RAIN  60  58  92 SW9G18    29.47R
Akron          LGT RAIN  61  55  81 SW10      29.48S
Cleveland      LGT RAIN  61  58  90 SW6       29.49F FOG
Cincinnati     CLOUDY    61  58  90 NW20G26   29.56R
Columbus       LGT RAIN  67  55  66 SW8       29.47R
Detroit        LGT RAIN  61  59  93 NW9       29.49S FOG
Chicago O`Hare CLOUDY    67  54  63 N8        29.64R
Minneapolis    MOSUNNY   69  49  48 S9G18     29.65F
Indianapolis   CLOUDY    62  55  77 NW10      29.62R
Toronto Canada DRIZZLE   52  50  93 E17G28    29.51S

$$




USA.gov is the U.S. government's official web portal to all federal, state and local government web resources and services.